Home   Weather   Schwyz   Past weeks

Flag for Switzerland Past Weather in Schwyz, Schwyz, Switzerland — Yesterday and Last 2 Weeks

Now
53 °F

Cool.


Feels Like: 47 °F
Forecast: 27 / 44 °F
Wind: 20 mph from North

Location: Altdorf

Current Time: Feb 24, 2017 at 4:39:16 am

Latest Report: Feb 24, 2017 at 3:00 am


Visibility: N/A

Pressure: 29.72 "Hg (27.94 "Hg at 515m altitude)

Humidity: 58%

Dew Point: 38 °F

Location of SchwyzLocation

Past Weather in Schwyz — Graph

°F

Schwyz Temperature Yesterday

Maximum temperature yesterday: 60 °F (at 6:00 pm)
Minimum temperature yesterday: 36 °F (at 6:00 am)
Average temperature yesterday: 49 °F

High & Low Weather Summary for the Past Weeks

 TemperatureHumidityPressure
High60 °F (Feb 23, 6:00 pm)98% (Feb 22, 8:00 am)30.65 "Hg (Feb 22, 8:00 am)
Low25 °F (Feb 19, 7:00 am)30% (Feb 12, 2:00 pm)29.62 "Hg (Feb 23, 5:00 pm)
Average40 °F78%30.26 "Hg
* Reported Feb 9 3:00 am — Feb 24 3:00 am, Schwyz, Weather by CustomWeather, © 2017

Note: Actual official high and low records may vary slightly from our data, if they occured in-between our weather recording intervals... More about our weather records

Advertising

Schwyz Weather History for the Previous 24 Hours

Scroll right to see more
 ConditionsComfort  
Time TempWeatherWind HumidityBarometerVisibility
3:00 am
Fri, Feb 24
53 °FCool.20 mph58%29.72 "HgN/A
2:00 am54 °FCool.14 mph57%29.72 "HgN/A
1:00 am54 °FOvercast.7 mph53%29.70 "Hg12 mi
12:00 am55 °FRefreshingly cool.10 mph50%29.70 "HgN/A
11:00 pm
Thu, Feb 23
54 °FCool.3 mph43%29.68 "HgN/A
10:00 pm56 °FPassing clouds.3 mph36%29.66 "Hg12 mi
9:00 pm55 °FRefreshingly cool.10 mph39%29.66 "HgN/A
8:00 pm57 °FRefreshingly cool.18 mph34%29.63 "HgN/A
7:00 pm59 °FPassing clouds.15 mph31%29.63 "Hg16 mi
6:00 pm60 °FRefreshingly cool.7 mph31%29.62 "HgN/A
5:00 pm56 °FRefreshingly cool.3 mph44%29.62 "HgN/A
4:00 pm57 °FScattered clouds.2 mph53%29.64 "Hg19 mi
3:00 pm59 °FRefreshingly cool.1 mph38%29.66 "HgN/A
2:00 pm58 °FRefreshingly cool.3 mph41%29.70 "HgN/A
1:00 pm56 °FPartly sunny.7 mph52%29.75 "Hg16 mi
12:00 pm52 °FCool.7 mph57%29.79 "HgN/A
11:00 am51 °FCool.3 mph57%29.82 "HgN/A
10:00 am49 °FCool.1 mph65%29.86 "HgN/A
9:00 am41 °FQuite cool.2 mph75%29.91 "HgN/A
8:00 am40 °FQuite cool.2 mph71%29.95 "HgN/A
7:00 am36 °FPassing clouds.2 mph83%29.98 "Hg12 mi
6:00 am36 °FChilly.3 mph85%30.00 "HgN/A
5:00 am37 °FChilly.2 mph89%30.02 "HgN/A
4:00 am37 °FOvercast.3 mph92%30.03 "Hg12 mi
Weather by CustomWeather, © 2017

See weather overviewHow to use our weather pages